sat.trackr.live / text

‹ back to catalog

STARLINK-34727

NORAD 65025 · 2025-161L

PAYLOAD ACTIVE UNKNOWN

§ Identity

Operator
Country
US
Launch date
2025-07-30
Launch site
AFWTR
Launch vehicle
Mass (kg)
RCS (m²)

Purposes: comms

External: N2YO · Heavens-Above · Gunter

§ Orbital elements

Epoch: 2026-05-25T03:47:41.904960Z

Period
93.90 min
Inclination
53.1612°
Eccentricity
0.0000849
Mean motion
15.33613224 rev/d
Perigee alt
464.5 km
Apogee alt
465.6 km
Semi-major
6,843.2 km
B*
1.6722e-3
RAAN
298.5776°
Arg perigee
71.3349°
Mean anomaly
288.7745°
Rev number
4,706

§ Raw data

STARLINK-347271 65025U 25161L   26145.15812390  .00055140  00000+0  16722-2 0  99942 65025  53.1612 298.5776 0000849  71.3349 288.7745 15.33613224 47068

JSON: /api/v1/satellites/65025 · /tle

For live sub-satellite position, see the globe view (requires WebGL).

§ Visibility from observer

Set your observer location to see the next 7 days of passes ≥ 10°. The values pass through the URL so the page stays shareable.

No JS? Fill the form by hand. The geolocation button needs JavaScript.